STARLINK-31867 (60139 NORAD) Tracking and Keplerian Element Data

This shows tracking and keplerian element data for the satellite.

Feedback or suggestion? Click here.




ElementValue
Catalog60139
NameSTARLINK-31867
Epoch Orbit1766
Epoch Day286.02219396
Epoch Year2024
RAAN190.677
Inclination53.1584
Eccentricity9E-05
Argument of Perigee59.2881
Mean Anonmoly300.8212
Mean Motion15.39515621
Decay Rate0.00124041
L11 60139U 24120E 24286.02219396 .00124041 00000+0 30713-2 0 9999
L22 60139 53.1584 190.6770 0000900 59.2881 300.8212 15.39515621 17663



Live tracking and technical data element details for STARLINK-31867 (NORAD 60139). STARLINK-31867 can be tracked NOW for your location showing map with azimuth and elevation plus other details from your city location.







IsCatalogInMostPopularTable: catalog: 60139, numindb: 12
Update: records affected: 1



GetName: 60139 STARLINK-31867

Hit Count: updated at: Thu, 23 Jan 2025 12:52:41 GMT